THOR AGENA D R/B

Last updated on Mon Sep 21 2026 00:02:07 GMT+0000 (Coordinated Universal Time)

1 00733U 64002A 26263.32381094 .00000068 00000+0 41391-4 0 9999 2 00733 99.1135 287.1797 0033616 52.9817 307.4434 14.34095600266196
UTC large
Height (km)
Speed (km/s)
/
Latitude / Longitude
Inclination (degrees)
Orbital Period (minutes)
Azimuth
Elevation
Range (km)
Doppler Factor

Next 0 passes for location: London (51.5072 / 0.1276)

No passes found over London.
THOR AGENA D R/B